Regional Weather Roundup
Issued by NWS

Home | Current Version | Previous Version | Graphics & Text | Print | Product List | Glossary On
Versions: 1 2 3 4 5 6 7 8 9 10 11 12 13 14 15 16 17 18 19 20 21 22 23 24 25 26 27 28 29 30 31 32 33 34 35 36 37 38 39 40 41 42 43 44 45 46 47 48 49 50
000
ASUS43 KIND 190309
RWRIN

WEATHER ROUNDUP FOR INDIANA
NATIONAL WEATHER SERVICE INDIANAPOLIS IN
1000 PM EST SUN FEB 18 2018

NOTE: "FAIR" INDICATES FEW OR NO CLOUDS BELOW 12,000 FEET WITH NO
SIGNIFICANT WEATHER AND/OR OBSTRUCTIONS TO VISIBILITY.

* - STATION DOES NOT REPORT WEATHER SUCH AS PRECIPITATION OR FOG.

+ - STATION NOT QUALITY CONTROLLED BY THE NATIONAL WEATHER SERVICE.
    USE DATA WITH CAUTION...ESPECIALLY DEWPOINT AND RELATIVE
    HUMIDITY OBSERVATIONS.

INZ001>003-010>013-019-020-190400-
NORTHWEST INDIANA

CITY           SKY/WX    TMP DP  RH WIND       PRES   REMARKS
GARY /AIRPORT/ PTCLDY    41  30  65 SE16G28   29.96F
LA PORTE +     FAIR      38  31  76 S15       30.00R WCI  29
MICHIGAN CITY+ FAIR      37  30  75 S9G21     29.99S WCI  31
MONTICELLO +   FAIR      38  32  77 SE9       30.00F WCI  32
RENSSELAER +   FAIR      37  30  75 SE16      29.98F WCI  28
VALPARAISO     FAIR      40  31  70 SE14      29.99F WCI  32

$$

LMZ046-743>745-190400-
SOUTHERN LAKE MICHIGAN

STATION/POSITION TIME  TEMP    WIND        PRES    WAVE
                       AIR SEA DIR/SP/G            HT
                 (UTC) (F)     (DEG/KT/KT) (MB)    (FT)
BURNS HARBOR     0240   40     170/ 14/ 25 1015.2S
MICHIGAN CITY    0240   39     140/ 19/ 22   N/A

$$

INZ004-005-014>016-021>024-190400-
NORTH CENTRAL INDIANA

CITY           SKY/WX    TMP DP  RH WIND       PRES   REMARKS
GOSHEN         FAIR      38  30  73 SE21G26   30.01F WCI  28
LOGANSPORT +   FAIR      36  32  87 SE12      30.04F WCI  27
PERU/GRISSOM   FAIR      38  37  96 S13       30.03F WCI  30
ROCHESTER +    FAIR      37  32  81 SE12      30.03F WCI  30
SOUTH BEND     FAIR      37  29  72 S16       30.02F WCI  28
WARSAW +       FAIR      36  32  87 SE10G17   30.04F WCI  28

$$

INZ006>009-017-018-025>027-190400-
NORTHEAST INDIANA

CITY           SKY/WX    TMP DP  RH WIND       PRES   REMARKS
AUBURN +       FAIR      36  32  87 SE8       30.09F WCI  29
FORT WAYNE     MOCLDY    37  32  82 SE13      30.09F WCI  29
HUNTINGTON +   FAIR      36  31  83 SE9       30.07F WCI  29
KENDALLVILLE + FAIR      36  32  86 SE17G23   30.06F WCI  25

$$

INZ028-029-035-036-043>045-051>053-190400-
WEST CENTRAL INDIANA

CITY           SKY/WX    TMP DP  RH WIND       PRES   REMARKS
CRAWFORDSVL +  FAIR      38  32  79 SE16G22   30.01F WCI  29
GREENCASTLE +  FAIR      39  32  75 SE10      30.05F WCI  32
LAFAYETTE      FAIR      40  32  73 S10G17    30.01F WCI  33
TERRE HAUTE    CLOUDY    44  33  65 SE17      30.03F

$$

INZ030>032-037>040-046>048-054>057-064-065-190400-
CENTRAL INDIANA

CITY           SKY/WX    TMP DP  RH WIND       PRES   REMARKS
COLUMBUS       MOCLDY    39  30  70 SE6       30.11F WCI  35
FISHERS *+       N/A     39  36  87 S13G21    30.07F WCI  32
FRANKFORT +    FAIR      41  35  77 S14G20    30.04F
GREENWOOD *+   FAIR     N/A N/A N/A SE8       30.09F
INDIANAPOLIS   MOCLDY    41  33  73 SE10      30.07F
-EAGLE CREEK   FAIR      42  32  67 SE8       30.06F
KOKOMO +       FAIR      38  32  79 SE15      30.06F WCI  29
MARION +       FAIR      36  31  83 SE12      30.07F WCI  27
MT COMFORT *+  FAIR      39  36  87 SE12G17   30.08F WCI  32
SHELBYVILLE    FAIR      41  32  70 SE10      30.09F
ZIONSVILLE +   FAIR      39  32  76 SE14G20   30.06F WCI  31

$$

INZ033-034-041-042-049-050-058-059-190400-
EAST CENTRAL INDIANA

CITY           SKY/WX    TMP DP  RH WIND       PRES   REMARKS
MUNCIE         FAIR      42  31  64 S10       30.07F
RICHMOND +     FAIR      37  32  81 SE13G18   30.12F WCI  29

$$

INZ060-061-067>069-081>083-085>088-190400-
SOUTHWEST INDIANA

CITY           SKY/WX    TMP DP  RH WIND       PRES   REMARKS
EVANSVILLE     CLOUDY    48  35  60 SE6       30.07F
HUNTINGBURG +  CLOUDY    47  35  63 SE12      30.08F
WASHINGTON +   CLOUDY    44  33  66 SE7       30.08R

$$

INZ062-063-066-070>080-084-089>092-190400-
SOUTH CENTRAL AND SOUTHEAST INDIANA

CITY           SKY/WX    TMP DP  RH WIND       PRES   REMARKS
BATESVILLE +   CLEAR     39  36  87 MISG      30.11F
BEDFORD +      FAIR      43  32  65 SE7       30.09R
BLOOMINGTON    CLOUDY    44  32  62 S9        30.08R
FRENCH LICK *+ CLOUDY    45  28  53 SE7       30.09F
MADISON *+     FAIR      43  32  65 E7        30.13F
NORTH VERNON + FAIR      41  32  70 SE6       30.11F
SEYMOUR +      MOCLDY    45  34  65 SE7       30.10F

$$




USA.gov is the U.S. government's official web portal to all federal, state and local government web resources and services.